Location: Aldenham
(51.6667°N, 0.3500°W)
Time: 17:16:15
(UTC+00:00)

Vanguard 2 Rocket - Pass Details

Date: 19 February 2026
Orbit: 553 x 3286 km, 32.9° (Epoch: 11 March)

Event Time Altitude Azimuth Distance (km) Brightness Sun altitude
Rises 14:41:26 0° 252° (WSW) 7,070 12.4 19.7°
Reaches altitude 10° 14:47:13 10° 245° (WSW) 5,786 12.4 19.2°
Maximum altitude 15:00:47 32° 191° (SSW) 3,297 10.9 17.8°
Drops below altitude 10° 15:09:49 10° 133° (SE) 3,828 10.1 16.8°
Sets 15:12:46 0° 124° (ESE) 4,470 10.3 16.5°
